Regional Weather Roundup
Issued by NWS Cleveland, OH

Home | Current Version | Previous Version | Graphics & Text | Print | Product List | Glossary On
Versions: 1 2 3 4 5 6 7 8 9 10 11 12 13 14 15 16 17 18 19 20 21 22 23 24 25 26 27 28 29 30 31 32 33 34 35 36 37 38 39 40 41 42 43 44 45 46 47 48 49 50
000
ASUS41 KCLE 311800
RWRCLE
OHIO REGIONAL WEATHER ROUNDUP
NATIONAL WEATHER SERVICE WILMINGTON, OH
200 PM EDT MON AUG 31 2015

NOTE: "FAIR" INDICATES FEW OR NO CLOUDS BELOW 12,000 FEET WITH NO
SIGNIFICANT WEATHER AND/OR OBSTRUCTIONS TO VISIBILITY.

OHZ001>008-015>018-024>027-034-035-043-044-311900-
   NORTHWEST OHIO

CITY           SKY/WX    TMP DP  RH WIND       PRES   REMARKS
DEFIANCE       PTSUNNY   84  70  62 VRB5      30.09F
FINDLAY        SUNNY     85  69  58 SW7       30.09F
TOLEDO EXPRESS MOSUNNY   82  69  64 W7        30.08F
TOLEDO EXEC    MOSUNNY   84  68  58 VRB7      30.09F
LIMA           SUNNY     82  67  60 W6        30.11F
$$

OHZ009>014-019>023-028>033-038-089-311900-
   NORTHEAST OHIO

CITY           SKY/WX    TMP DP  RH WIND       PRES   REMARKS
CLE-HOPKINS    MOSUNNY   82  67  60 W6        30.11F
CLE-LAKEFRONT  SUNNY     77  70  79 NW3       30.09F
CUY CO. ARPT   MOSUNNY   81  70  69 NW12      30.11S HAZE
LORAIN-ELYRIA  MOSUNNY   83  68  60 N7        30.10F
ASHTABULA      PTSUNNY   81  70  69 NW8       30.10F
AKRON-CANTON   MOSUNNY   85  65  51 SW9       30.11F
WOOSTER        NOT AVBL
MANSFIELD      FAIR      83  65  54 W6        30.12F
YOUNGSTOWN     PTSUNNY   85  66  53 W9        30.10F
$$

OHZ042-051>053-060>062-070>072-077>081-311900-
  SOUTHWEST OHIO

CITY           SKY/WX    TMP DP  RH WIND       PRES   REMARKS
CINC-COVINGTON MOSUNNY   85  67  54 W7        30.13F
CINC-LUNKEN    PTSUNNY   83  66  56 SW9       30.11F
HAMILTON       MOSUNNY   86  68  54 VRB7      30.12F
DAYTON         NOT AVBL
WRIGHT-PAT AFB NOT AVBL
DAYTON GENERAL MOSUNNY   83  65  54 SW5       30.12F
WILMINGTON     MOSUNNY   81  66  60 W5        30.13F
$$

OHZ036-037-039>041-045>050-054>059-063>069-073>076-082>088-311900-
  CENTRAL AND SOUTHEAST OHIO

CITY           SKY/WX    TMP DP  RH WIND       PRES   REMARKS
COLUMBUS       MOSUNNY   84  66  54 CALM      30.10F
OSU AIRPORT    PTSUNNY   86  67  52 VRB5      30.11F
BOLTON FIELD   PTSUNNY   82  70  65 NW6       30.12F
RICKENBACK AFB NOT AVBL
NEWARK         PTSUNNY   84  68  58 CALM      30.11F
MARION         MOSUNNY   82  67  60 CALM      30.11F
LANCASTER      SUNNY     85  64  49 SW5       30.12F
ZANESVILLE     NOT AVBL
NEW PHILLY     MOSUNNY   85  66  53 VRB5      30.10F
$$


USA.gov is the U.S. government's official web portal to all federal, state and local government web resources and services.